Location: Balmoral
(33.0667°S, 151.5833°E)
Time: 01:04:04
(UTC+00:00)

Cosmos 2333 Rocket - Pass Details

Date: 18 September 2020
Orbit: 839 x 863 km, 70.8° (Epoch: 21 October)

Event Time Altitude Azimuth Distance (km) Brightness Sun altitude
Rises 16:43:44 0° 186° (S) 3,438 5.6 -38.1°
Reaches altitude 10° 16:46:50 10° 170° (S) 2,500 5.0 -37.5°
Maximum altitude 16:51:06 21° 121° (ESE) 1,832 4.5 -36.7°
Drops below altitude 10° 16:55:22 10° 73° (ENE) 2,493 5.1 -35.9°
Sets 16:58:26 0° 57° (ENE) 3,425 5.7 -35.3°
